Limon, CO

10:51 PM MST on November 18, 2019 (GMT -0700)
Limon Municipal

Weather History for KLIC - September, 2019

Change the Weather History Date:

Sunday, September 22, 2019

  Actual Average Record
Temperature  
Mean Temperature 56 °F -  
Max Temperature 72 °F - 88 °F (2010)
Min Temperature 39 °F - 34 °F (2003)
Degree Days  
Heating Degree Days 9    
Month to date heating degree days 24  
Cooling Degree Days 0    
Month to date cooling degree days 76  
Growing Degree Days 5 (Base 50)    
Moisture  
Dew Point 38 °F    
Average Humidity 61    
Maximum Humidity 100    
Minimum Humidity 22    
Precipitation  
Precipitation 0.00 in - 0.16 in (2014)
Month to date precipitation 0.31  
Year to date precipitation 12.70  
Snow  
Snow 0.00 in - - ()
Snow Depth 0.00 in    
Sea Level Pressure  
Sea Level Pressure 30.00 in    
Wind  
Wind Speed 7 mph (South)    
Max Wind Speed 17 mph    
Max Gust Speed 26 mph    
Visibility 10 miles    
Events      
T = Trace of Precipitation, MM = Missing Value Source: NWS Daily Summary

Daily Weather History Graph

Daily Weather History Graph

Search for Another Location

Airport or City:

Astronomy

Sep. 22, 2019 Rise Set
Actual Time 6:42 AM MDT 6:51 PM MDT
Civil Twilight 6:15 AM MDT 7:18 PM MDT
Nautical Twilight 5:44 AM MDT 7:49 PM MDT
Astronomical Twilight 5:12 AM MDT 8:21 PM MDT
Moon No Moon Rise 2:47 PM MDT (9/22)
Length of Visible Light 13h 03m
Length of Day
12h 09m
Last Quarter, 43% of the Moon is Illuminated
Sep 22
Last Quarter
Sep 28
New
Oct 5
First Quarter
Oct 13
Full
Oct 21
Last Quarter

Hourly Weather History & Observations

Time (MDT) Temp. Windchill Dew Point Humidity Pressure Visibility Wind Dir Wind Speed Gust Speed Precip Events Conditions
12:55 AM 46.0 °F 40.2 °F 43.0 °F 89% 29.96 in 10.0 mi North 12.7 mph - N/A   Clear
1:55 AM 45.0 °F 40.1 °F 43.0 °F 93% 29.95 in 10.0 mi North 9.2 mph - N/A   Clear
2:55 AM 44.1 °F 40.8 °F 43.0 °F 96% 29.95 in 10.0 mi North 5.8 mph - N/A   Partly Cloudy
3:55 AM 42.1 °F 38.4 °F 41.0 °F 96% 29.95 in 10.0 mi West 5.8 mph - N/A   Clear
4:55 AM 39.9 °F - 39.9 °F 100% 29.98 in 10.0 mi Calm Calm - N/A   Clear
5:55 AM 39.0 °F - 39.0 °F 100% 30.00 in 10.0 mi Calm Calm - N/A   Clear
6:55 AM 39.9 °F - 39.9 °F 100% 30.03 in 10.0 mi Calm Calm - N/A   Clear
7:55 AM 45.0 °F - 43.0 °F 93% 30.03 in 10.0 mi Calm Calm - N/A   Clear
8:55 AM 51.1 °F - 43.0 °F 74% 30.02 in 10.0 mi South 8.1 mph - N/A   Clear
9:55 AM 55.0 °F - 43.0 °F 64% 30.04 in 10.0 mi South 12.7 mph - N/A   Clear
10:55 AM 59.0 °F - 42.1 °F 53% 30.04 in 10.0 mi SSW 15.0 mph 19.6 mph N/A   Clear
11:55 AM 64.0 °F - 39.0 °F 40% 30.01 in 10.0 mi Variable 5.8 mph 18.4 mph N/A   Clear
12:55 PM 66.9 °F - 35.1 °F 31% 29.98 in 10.0 mi WSW 6.9 mph - N/A   Clear
1:55 PM 68.0 °F - 32.0 °F 26% 29.96 in 10.0 mi North - - N/A   Clear
2:55 PM 71.1 °F - 34.0 °F 26% 29.94 in 10.0 mi SSE 9.2 mph 26.5 mph N/A   Clear
3:55 PM 71.1 °F - 32.0 °F 24% 29.95 in 10.0 mi North - - N/A   Clear
4:55 PM 71.1 °F - 30.0 °F 22% 29.96 in 10.0 mi SE 9.2 mph - N/A   Clear
5:55 PM 69.1 °F - 32.0 °F 25% 29.98 in 10.0 mi SSE 9.2 mph - N/A   Clear
6:55 PM 60.1 °F - 35.1 °F 39% 30.03 in 10.0 mi SSE 6.9 mph - N/A   Clear
7:55 PM 55.0 °F - 36.0 °F 49% 30.05 in 10.0 mi SSE 4.6 mph - N/A   Clear
8:55 PM 48.0 °F - 35.1 °F 61% 30.07 in 10.0 mi Calm Calm - N/A   Clear
9:55 PM 51.1 °F - 37.9 °F 61% 30.06 in 10.0 mi SSE 6.9 mph - N/A   Clear
10:55 PM 46.9 °F - 36.0 °F 66% 30.07 in 10.0 mi SE 4.6 mph - N/A   Clear
11:55 PM 52.0 °F - 37.9 °F 59% 30.03 in 10.0 mi South 8.1 mph - N/A   Clear